Station 45007 (LLNR 20595) - SOUTH MICHIGAN - 43NM East Southeast of Milwaukee, WI Image indicating link to RSS feed of recent meteorological observations for station 45007


Conditions at 45007 as of
(9:20 pm EDT on 07/13/2024)
0120 GMT on 07/14/2024:
     

Click on the graph icon in the table below to see a time series plot of the last five days of that observation.

5-day plot - Wind Direction Wind Direction (WDIR):SSE ( 160 deg true )
5-day plot - Wind Speed Wind Speed (WSPD): 11.7 kts
5-day plot - Wind Gust Wind Gust (GST): 13.6 kts
5-day plot - Wave Height Wave Height (WVHT): 1.0 ft
5-day plot - Dominant Wave Period Dominant Wave Period (DPD): 2 sec
5-day plot - Average Wave Period Average Period (APD): 2.5 sec
5-day plot - Mean Wave Direction Mean Wave Direction (MWD): SE ( 141 deg true )
5-day plot - Atmospheric Pressure Atmospheric Pressure (PRES):30.02 in
5-day plot - Air Temperature Air Temperature (ATMP): 75.0 °F
5-day plot - Dew Point Dew Point (DEWP): 70.9 °F
5-day plot - Wind Speed at 10 Meters Wind Speed at 10 meters (WSPD10M): 13.6 kts
5-day plot - Wind Speed at 20 Meters Wind Speed at 20 meters (WSPD20M): 13.6 kts
5-day plot -  Wind Speed, Wind Gust and Atmospheric Pressure Combined plot of Wind Speed, Gust, and Air Pressure
Supplemental Measurements
Lowest 1-minute Pressure
Time (EDT)Pressure
9:20 pm30.02 in
Highest 1-minute Wind Speed
Time (EDT)5-day plot - 1-Minute Wind Speed WSPD 5-day plot - 1-Minute Wind Direction WDIR
9:16 pm 11.7 ktsSSE ( 160 deg true )
Previous observations
TIME
(EDT)
5-day plot - Wind Direction
WDIR
 
5-day plot - Wind Speed
WSPD
kts
5-day plot - Wind Gust
GST
kts
5-day plot - Wave Height
WVHT
ft
5-day plot - Dominant Wave Period
DPD
sec
5-day plot - Average Wave Period
APD
sec
5-day plot - Mean Wave Direction
MWD
 
5-day plot - Atmospheric Pressure
PRES
in
5-day plot - Pressure Tendency
PTDY
in
5-day plot - Air Temperature
ATMP
°F
5-day plot - Water Temperature
WTMP
°F
5-day plot - Dew Point
DEWP
°F
5-day plot - Salinity
SAL
psu
5-day plot - Visibility
VIS
nmi
5-day plot - Tide (above MLLW)
TIDE
ft
2024-07-13 09:10 pm S 11.7 13.6----30.01- 75.2 72.1 70.7---
2024-07-13 09:00 pmSSE 11.7 13.6----30.02-0.05 75.2 72.3 70.3---
2024-07-13 08:50 pm S 9.7 13.6 1.0 22.4 SE30.03- 75.6 72.3 70.2---
2024-07-13 08:40 pmSSE 9.7 13.6----30.03- 75.2 72.3 70.5---
2024-07-13 08:30 pm SE 9.7 9.7----30.03- 75.2 72.5 70.5---
2024-07-13 08:20 pm SE 9.7 11.7 1.0 22.4 SE30.03- 75.2- 70.7---
2024-07-13 08:10 pm SE 9.7 11.7 1.0-2.4 SE30.03- 75.2 72.7 70.5---
2024-07-13 08:00 pm SE 9.7 11.7----30.03-0.06 75.0 72.7 70.7---
2024-07-13 07:50 pm SE 11.7 11.7 0.7-2.3-30.03- 75.4 72.9 70.7---
2024-07-13 07:40 pm SE 11.7 13.6 0.7-2.3-30.04- 75.4 72.9 70.7---
2024-07-13 07:30 pm SE 11.7 11.7----30.05- 75.4 72.9 70.9---
2024-07-13 07:20 pm SE 9.7 11.7 0.7-2.2-30.05- 75.4 73.0 70.9---
2024-07-13 07:10 pm SE 9.7 11.7 0.7-2.2-30.06- 75.2 72.9 70.9---
2024-07-13 07:00 pm SE 9.7 11.7----30.06-0.07 75.0 73.0 70.9---
2024-07-13 06:50 pmESE 9.7 11.7 0.7-2.2-30.05- 74.8 72.9 71.2---
2024-07-13 06:40 pmESE 9.7 9.7----30.06- 74.8 72.9 71.1---
2024-07-13 06:30 pmESE 9.7 11.7----30.06- 74.8 72.9 70.9---
2024-07-13 06:20 pmESE 9.7 11.7 0.7-2.3-30.06- 74.7 73.0 71.1---
2024-07-13 06:10 pmESE 9.7 11.7----30.06- 74.5 73.0 71.1---
2024-07-13 06:00 pmESE 9.7 9.7----30.06-0.08 74.5 73.0 70.9---
2024-07-13 05:50 pmESE 9.7 9.7 0.7-2.3-30.07- 74.5 73.0 70.9---
2024-07-13 05:40 pmESE 9.7 9.7----30.08- 74.3 73.2 70.9---
2024-07-13 05:30 pmESE 9.7 9.7----30.08- 74.1 73.4 71.1---
2024-07-13 05:20 pmESE 7.8 9.7 0.7-2.2-30.09- 74.1- 71.1---
2024-07-13 05:10 pmESE 7.8 9.7 0.7-2.2-30.09- 74.1 73.2 71.2---
2024-07-13 05:00 pmESE 7.8 9.7----30.10-0.06 73.9 73.2 71.1---
2024-07-13 04:50 pmESE 7.8 9.7 0.3-2.2-30.10- 73.9- 71.1---
2024-07-13 04:40 pmESE 7.8 9.7 0.3-2.2-30.10- 73.8 73.4 71.1---
2024-07-13 04:30 pmESE 7.8 9.7----30.11- 73.8 73.4 71.1---
2024-07-13 04:20 pmESE 7.8 9.7 0.3-2.2-30.12- 73.8 73.4 70.9---
2024-07-13 04:10 pmESE 9.7 9.7----30.12- 73.6 73.2 70.7---
2024-07-13 04:00 pmESE 9.7 9.7----30.13-0.02 73.6 73.2 70.7---
2024-07-13 03:50 pm SE 9.7 11.7 0.3-2.6-30.13- 73.4 73.2 70.5---
2024-07-13 03:40 pm SE 9.7 11.7----30.13- 73.4 73.2 70.5---
2024-07-13 03:30 pmESE 9.7 11.7----30.13- 73.4 73.2 70.2---
2024-07-13 03:20 pmESE 9.7 11.7 0.3-2.8-30.13- 73.4- 70.2---
2024-07-13 03:10 pmESE 7.8 9.7 0.3-2.8-30.13- 73.4 72.7 70.2---
2024-07-13 03:00 pmESE 7.8 9.7----30.14-0.01 73.6 72.7 70.3---
2024-07-13 02:50 pmESE 7.8 9.7 0.3-3.1-30.14- 73.6- 70.2---
2024-07-13 02:40 pmESE 7.8 9.7----30.14- 73.6 71.6 70.2---
2024-07-13 02:30 pm SE 7.8 9.7----30.14- 73.6 71.6 70.0---
2024-07-13 02:20 pm SE 5.8 7.8 0.3-2.8-30.14- 73.6- 69.6---
2024-07-13 02:10 pm SE 5.8 5.8 0.3-2.8-30.15- 73.6 71.4 69.6---
2024-07-13 02:00 pm SE 3.9 5.8----30.16-0.01 73.6 71.4 69.8---
2024-07-13 01:50 pmESE 3.9 3.9 0.3-2.5-30.16- 73.4 71.2 69.8---
2024-07-13 01:40 pmESE 3.9 3.9 0.3-2.5-30.16- 73.2 71.2 69.6---
2024-07-13 01:30 pm SE 3.9 5.8----30.16- 73.2 71.4 69.6---
2024-07-13 01:20 pm SE 3.9 5.8 0.3-2.6-30.15- 73.0 71.1 69.3---
2024-07-13 01:10 pm SE 5.8 5.8----30.15- 73.0 71.2 69.3---
2024-07-13 01:00 pm SE 5.8 5.8----30.15-0.03 72.9 71.1 69.3---
2024-07-13 12:50 pm SE 3.9 5.8 0.3-2.4-30.15- 72.7- 69.3---
2024-07-13 12:40 pm SE 5.8 5.8----30.15- 72.5 71.6 69.1---
2024-07-13 12:30 pmSSE 5.8 5.8----30.15- 72.3 71.8 68.9---
2024-07-13 12:20 pmSSE 5.8 5.8 0.3-2.4-30.15- 72.3 72.0 68.7---
2024-07-13 12:10 pmSSE 3.9 5.8 0.3-2.4-30.15- 72.3 71.8 68.5---
2024-07-13 12:00 pmSSE 3.9 5.8----30.15-0.01 72.1 71.6 68.2---
2024-07-13 11:50 amSSE 5.8 5.8 0.3-3.4-30.16- 72.1 71.8 67.8---
2024-07-13 11:40 amSSE 3.9 5.8----30.16- 72.1 71.6 67.8---
2024-07-13 11:30 amSSE 5.8 5.8----30.16- 72.1 71.4 67.5---
2024-07-13 11:20 am S 5.8 5.8 0.0-3.4-30.17- 72.3 71.4 67.3---
2024-07-13 11:10 am S 3.9 5.8 0.0-3.4-30.17- 72.3 71.4 67.1---
2024-07-13 11:00 am S 3.9 5.8----30.17+0.01 72.3 71.2 67.1---
2024-07-13 10:50 am S 5.8 5.8 0.3-3.9-30.17- 72.1 71.2 67.1---
2024-07-13 10:40 amSSE 5.8 5.8 0.3-3.9-30.17- 72.1 71.4 67.5---
2024-07-13 10:30 am SE 3.9 5.8----30.17- 72.0 71.6 67.8---
2024-07-13 10:20 am SE 3.9 5.8 0.0-2.8-30.18- 72.0 71.6 68.2---
2024-07-13 10:10 am SE 3.9 3.9 0.0-2.8-30.17- 72.1 71.6 68.2---
2024-07-13 10:00 am SE 1.9 1.9----30.17+0.01 72.0 71.6 67.8---
2024-07-13 09:50 amSSE 1.9 1.9 0.3-2.8-30.17- 72.1- 67.8---
2024-07-13 09:40 am S 1.9 3.9 0.3-2.8-30.17- 72.0 71.6 68.0---
2024-07-13 09:30 amSSE 1.9 3.9----30.17- 71.8 71.6 67.8---
2024-07-13 09:20 am S 3.9 3.9 0.3-3.2-30.18- 71.6- 67.8---
2024-07-13 09:10 amSSE 3.9 3.9 0.3-3.2-30.17- 71.6 71.4 68.2---
2024-07-13 09:00 amSSE 3.9 3.9----30.17+0.01 71.2 71.4 68.2---
2024-07-13 08:50 amSSE 3.9 3.9 0.3-3.2-30.17- 71.2 71.4 67.8---
2024-07-13 08:40 amSSE 3.9 3.9 0.3-3.2-30.17- 71.2 71.4 68.0---
2024-07-13 08:30 am S 3.9 3.9----30.17- 71.2 71.2 68.4---
2024-07-13 08:20 amSSE 1.9 3.9 0.3-2.7-30.17- 71.4 71.2 68.5---
2024-07-13 08:10 am S 1.9 1.9 0.3-2.7-30.16- 71.8 71.2 68.7---
2024-07-13 08:00 am- 0.0 1.9----30.16+0.02 71.8 71.2 68.5---
2024-07-13 07:50 am- 0.0 1.9 0.3-2.7-30.16- 71.6- 68.5---
2024-07-13 07:40 am S 1.9 1.9----30.16- 71.2 71.4 68.4---
2024-07-13 07:30 amSSE 1.9 1.9----30.16- 71.2 71.2 68.4---
2024-07-13 07:20 amSSE 1.9 1.9 0.3-2.7-30.16- 71.1 71.2 68.4---
2024-07-13 07:10 am S 1.9 3.9 0.3-2.7-30.15- 71.1 71.2 68.4---
2024-07-13 07:00 am S 1.9 3.9----30.16+0.02 70.9 71.2 68.4---
2024-07-13 06:50 am S 3.9 3.9 0.3-2.7-30.16- 70.7- 68.2---
2024-07-13 06:40 am S 1.9 3.9----30.16- 70.7 71.2 68.0---
2024-07-13 06:30 am S 3.9 3.9----30.16- 70.9 71.2 67.6---
2024-07-13 06:20 am S 3.9 5.8 0.3-2.8-30.15- 71.1- 67.8---
2024-07-13 06:10 amSSE 3.9 5.8 0.3-2.8-30.16- 70.9 71.6 68.0---
2024-07-13 06:00 amSSE 3.9 5.8----30.15+0.01 70.9 71.6 68.7---
2024-07-13 05:50 am SE 3.9 3.9 0.3-2.8-30.16- 70.9- 68.7---
2024-07-13 05:40 am SE 3.9 3.9 0.3-2.8-30.15- 70.9 71.8 68.7---
2024-07-13 05:30 am SE 3.9 5.8----30.14- 70.9 72.0 68.7---
2024-07-13 05:20 am SE 3.9 5.8 0.3-2.9-30.14- 71.1- 68.5---
2024-07-13 05:10 am SE 3.9 3.9 0.3-2.9-30.14- 71.1 72.1 68.2---
2024-07-13 05:00 amSSE 3.9 5.8----30.14+0.00 71.2 72.1 68.2---
2024-07-13 04:50 amSSE 3.9 5.8 0.3-2.9-30.14- 71.1 72.1 67.8---
2024-07-13 04:40 amSSE 3.9 5.8 0.3-2.9-30.14- 71.1 72.1 69.3---
2024-07-13 04:30 amSSE 3.9 5.8----30.13- 71.1 72.0 69.1---
2024-07-13 04:20 amSSE 3.9 3.9 0.3-3.0-30.13- 71.1- 69.1---
2024-07-13 04:10 amSSE 3.9 3.9 0.3-3.0-30.14- 71.1 72.0 69.1---
2024-07-13 04:00 am S 1.9 3.9----30.14+0.00 70.9 72.0 69.1---
2024-07-13 03:50 am S 1.9 1.9 0.3-3.1-30.14- 70.9 71.8 69.4---
2024-07-13 03:40 am S 1.9 3.9----30.14- 70.9 72.0 69.6---
2024-07-13 03:30 am S 1.9 1.9----30.14- 70.5 71.8 69.4---
2024-07-13 03:20 amSSE 1.9 1.9 0.3-3.0-30.13- 70.5- 69.6---
2024-07-13 03:10 am- 0.0 1.9----30.14- 70.7 71.8 69.8---
2024-07-13 03:00 am- 0.0 1.9----30.14+0.01 70.9 71.8 70.0---
2024-07-13 02:50 am- 0.0 1.9 0.3-3.0-30.14- 70.9 72.0 70.0---
2024-07-13 02:40 am- 0.0 0.0----30.14- 70.9 72.0 70.0---
2024-07-13 02:30 amWSW 1.9 3.9----30.14- 71.2 71.8 70.3---
2024-07-13 02:20 amSSW 3.9 3.9 0.3-2.9-30.15- 71.2 71.4 70.3---
2024-07-13 02:10 amSSW 1.9 1.9----30.14- 71.2 72.1 70.3---
2024-07-13 02:00 am S 1.9 3.9----30.15+0.02 71.2 72.3 70.3---
2024-07-13 01:50 am S 3.9 3.9 0.3-2.8-30.14- 71.4- 70.5---
2024-07-13 01:40 am S 3.9 3.9----30.14- 71.6 72.5 70.7---
2024-07-13 01:30 amSSE 3.9 3.9----30.14- 71.6 72.1 70.7---
2024-07-13 01:20 am S 3.9 3.9 0.3-2.9-30.14- 71.6 72.5 70.5---
2024-07-13 01:10 am S 1.9 3.9 0.3-2.9-30.14- 71.6 72.5 70.7---
2024-07-13 01:00 am S 3.9 3.9----30.14+0.01 71.8 72.5 70.9---
2024-07-13 12:50 am S 3.9 3.9 0.3-3.2-30.14- 72.0- 70.9---
2024-07-13 12:40 am S 1.9 3.9----30.14- 72.1 72.7 70.9---
2024-07-13 12:30 am S 3.9 3.9----30.13- 72.0 72.3 70.3---
2024-07-13 12:20 amSSE 3.9 3.9 0.3-3.3-30.13- 72.0- 70.5---
2024-07-13 12:10 am SE 3.9 3.9 0.3-3.3-30.12- 72.0 72.0 70.7---
2024-07-13 12:00 am SE 3.9 3.9----30.13+0.01 72.1 72.5 70.9---
2024-07-12 11:50 pmSSE 3.9 3.9 0.3-3.5-30.13- 72.1- 70.9---
2024-07-12 11:40 pmSSE 3.9 3.9----30.13- 72.1 72.7 70.7---
2024-07-12 11:30 pm SE 3.9 3.9----30.13- 72.1 71.8 70.7---
2024-07-12 11:20 pm SE 1.9 3.9 0.3-3.0-30.13- 72.1 71.1 70.7---
2024-07-12 11:10 pm SE 1.9 3.9 0.3-3.0-30.12- 72.1 70.7 70.7---
2024-07-12 11:00 pm SE 1.9 1.9----30.13+0.02 72.3 72.5 70.9---
2024-07-12 10:50 pm SE 1.9 1.9 0.3-3.0-30.13- 72.3- 70.7---
2024-07-12 10:40 pm SE 1.9 1.9----30.13- 72.5 72.7 70.5---
2024-07-12 10:30 pm- 0.0 1.9----30.13- 72.7 73.0 70.3---
2024-07-12 10:20 pm E 1.9 1.9 0.3-2.9-30.13- 72.7- 70.2---
2024-07-12 10:10 pm E 1.9 3.9 0.3-2.9-30.12- 72.9 72.7 70.3---
2024-07-12 10:00 pmENE 1.9 3.9----30.12+0.01 72.9 72.1 70.2---
2024-07-12 09:50 pm NE 1.9 3.9 0.3-2.9-30.12- 73.0 72.7 70.3---
2024-07-12 09:40 pm NE 1.9 1.9----30.12- 73.0 72.9 70.0---
2024-07-12 09:30 pm NE 1.9 1.9----30.13- 73.2 72.0 70.0---
2024-07-12 09:20 pm NE 1.9 1.9 0.3-3.1-30.12- 73.4 72.0 70.2---
2024-07-12 09:10 pmNNE 1.9 1.9 0.3-3.1-30.12- 73.8 71.4 69.8---
2024-07-12 09:00 pmNNE 1.9 1.9----30.12+0.01 73.9 72.1 69.6---
2024-07-12 08:50 pmNNE 1.9 1.9 0.3-3.3-30.12- 73.6 70.7 69.3---

Detailed Wave Summary
for 45007 as of
(9:10 pm EDT on 07/13/2024)
0110 GMT on 07/14/2024:

These wave data are displayed in rounded times.

     

Click on the graph icon in the table below to see a time series plot of the last five days of that observation.

5-day plot - Significant Wave Height Significant Wave Height (WVHT): 1.0 ft
5-day plot - Swell Height Swell Height (SwH): 0.3 ft
5-day plot - Swell Period Swell Period (SwP): 7.1 sec
5-day plot - Swell Direction Swell Direction (SwD):ENE
5-day plot - Wind Wave Height Wind Wave Height (WWH): 1.0 ft
5-day plot - Wind Wave Period Wind Wave Period (WWP): 2.5 sec
5-day plot - Wind Wave Direction Wind Wave Direction (WWD): SE
5-day plot - Average Wave Period Average Wave Period (APD): 2.5 sec
Previous observations
TIME
(EDT)
5-day plot - Wave Height
WVHT
ft
5-day plot - Swell Height
SwH
ft
5-day plot - Swell Period
SwP
sec
5-day plot - Swell Direction
SwD
 
5-day plot - Wind Wave Height
WWH
ft
5-day plot - Wind Wave Period
WWP
sec
5-day plot - Wind Wave Direction
WWD
 
5-day plot - Wave Steepness
STEEPNESS
 
5-day plot - Average Wave Period
APD
sec
2024-07-13 08:40 pm 1.0 0.0 7.7SSE 1.0 2.4 SE N/A 2.4
2024-07-13 08:10 pm 1.0 0.0 5.9 NW 1.0 2.2 SE N/A 2.4
2024-07-13 07:40 pm 0.7------ N/A 2.3
2024-07-13 07:10 pm 0.7------ N/A 2.2
2024-07-13 06:40 pm 0.7------ N/A 2.2
2024-07-13 06:10 pm 0.7------ N/A 2.3
2024-07-13 05:40 pm 0.7------ N/A 2.3
2024-07-13 05:10 pm 0.7------ N/A 2.2
2024-07-13 04:40 pm 0.3------ N/A 2.2
2024-07-13 04:10 pm 0.3------ N/A 2.2
2024-07-13 03:40 pm 0.3------ N/A 2.6
2024-07-13 03:10 pm 0.3------ N/A 2.8
2024-07-13 02:40 pm 0.3------ N/A 3.1
2024-07-13 02:10 pm 0.3------ N/A 2.8
2024-07-13 01:40 pm 0.3------ N/A 2.5
2024-07-13 01:10 pm 0.3------ N/A 2.6
2024-07-13 12:40 pm 0.3------ N/A 2.4
2024-07-13 12:10 pm 0.3------ N/A 2.4
2024-07-13 11:40 am 0.3------ N/A 3.4
2024-07-13 11:10 am 0.0------ N/A 3.4
2024-07-13 10:40 am 0.3------ N/A 3.9
2024-07-13 10:10 am 0.0------ N/A 2.8
2024-07-13 09:40 am 0.3------ N/A 2.8
2024-07-13 09:10 am 0.3------ N/A 3.2
2024-07-13 08:40 am 0.3------ N/A 3.2
2024-07-13 08:10 am 0.3------ N/A 2.7
2024-07-13 07:40 am 0.3------ N/A 2.7
2024-07-13 07:10 am 0.3------ N/A 2.7
2024-07-13 06:40 am 0.3------ N/A 2.7
2024-07-13 06:10 am 0.3------ N/A 2.8
2024-07-13 05:40 am 0.3------ N/A 2.8
2024-07-13 05:10 am 0.3------ N/A 2.9
2024-07-13 04:40 am 0.3------ N/A 2.9
2024-07-13 04:10 am 0.3------ N/A 3.0
2024-07-13 03:40 am 0.3------ N/A 3.1
2024-07-13 03:10 am 0.3------ N/A 3.0
2024-07-13 02:40 am 0.3------ N/A 3.0
2024-07-13 02:10 am 0.3------ N/A 2.9
2024-07-13 01:40 am 0.3------ N/A 2.8
2024-07-13 01:10 am 0.3------ N/A 2.9
2024-07-13 12:40 am 0.3------ N/A 3.2
2024-07-13 12:10 am 0.3------ N/A 3.3
2024-07-12 11:40 pm 0.3------ N/A 3.5
2024-07-12 11:10 pm 0.3------ N/A 3.0
2024-07-12 10:40 pm 0.3------ N/A 3.0
2024-07-12 10:10 pm 0.3------ N/A 2.9
2024-07-12 09:40 pm 0.3------ N/A 2.9
2024-07-12 09:10 pm 0.3------ N/A 3.1

Plot of wave energy versus frequency (and period)